LNE1359 SEQM-SEGU

Flight info

Callsign LNE1359
Flight time 0h 33m
Altitude 24000
Route TEMOX3B TEMOX TEMOX2
Aircraft A319/M-SDE1E2E3FGHIRWYZ/SB1

Departure

Time 2026-04-25 01:17
Airport Mariscal Sucre International Airport (SEQM)

Arrival

Time 2026-04-25 01:50
Airport José Joaquín de Olmedo International Airport (SEGU)
Time Latitude Longitude Altitude Speed Heading
2026-04-25 00:43 -0.12252 -78.35932 7843 ft 0 kts 267°
2026-04-25 01:07 -0.12252 -78.35925 7843 ft 3 kts 267°
2026-04-25 01:07 -0.12251 -78.35907 7832 ft 3 kts 267°
2026-04-25 01:07 -0.12250 -78.35888 7843 ft 3 kts 267°
2026-04-25 01:07 -0.12249 -78.35869 7843 ft 3 kts 267°
2026-04-25 01:08 -0.12249 -78.35851 7843 ft 3 kts 249°
2026-04-25 01:08 -0.12243 -78.35841 7843 ft 0 kts 213°
2026-04-25 01:12 -0.12286 -78.35846 7842 ft 8 kts 179°
2026-04-25 01:13 -0.12357 -78.35809 7838 ft 17 kts 110°
2026-04-25 01:13 -0.12357 -78.35679 7844 ft 14 kts 86°
2026-04-25 01:13 -0.12405 -78.35612 7846 ft 15 kts 177°
2026-04-25 01:13 -0.12495 -78.35610 7850 ft 10 kts 178°
2026-04-25 01:14 -0.12589 -78.35607 7855 ft 17 kts 178°
2026-04-25 01:14 -0.12727 -78.35600 7863 ft 23 kts 177°
2026-04-25 01:14 -0.12919 -78.35592 7870 ft 32 kts 177°
2026-04-25 01:14 -0.13036 -78.35587 7875 ft 17 kts 177°
2026-04-25 01:15 -0.13180 -78.35580 7882 ft 24 kts 177°
2026-04-25 01:15 -0.13309 -78.35575 7885 ft 15 kts 177°
2026-04-25 01:15 -0.13418 -78.35571 7886 ft 10 kts 178°
2026-04-25 01:15 -0.13504 -78.35568 7888 ft 12 kts 178°
2026-04-25 01:16 -0.13595 -78.35535 7892 ft 18 kts 99°
2026-04-25 01:16 -0.13559 -78.35482 7890 ft 10 kts 21°
2026-04-25 01:16 -0.13457 -78.35429 7889 ft 24 kts 27°
2026-04-25 01:16 -0.13205 -78.35411 7883 ft 63 kts 358°
2026-04-25 01:17 -0.12526 -78.35439 7853 ft 131 kts 358°
2026-04-25 01:17 -0.11832 -78.35467 7853 ft 165 kts 358°
2026-04-25 01:17 -0.10332 -78.35542 8766 ft 160 kts 357°
2026-04-25 01:17 -0.09215 -78.35608 9351 ft 161 kts 356°
2026-04-25 01:18 -0.08082 -78.35674 9839 ft 168 kts 356°
2026-04-25 01:18 -0.06848 -78.35746 10035 ft 188 kts 356°
2026-04-25 01:18 -0.05467 -78.35825 10185 ft 210 kts 356°
2026-04-25 01:18 -0.03933 -78.35911 10312 ft 232 kts 356°
2026-04-25 01:19 -0.02251 -78.36003 10455 ft 257 kts 356°
2026-04-25 01:19 -0.00372 -78.36231 10687 ft 281 kts 344°
2026-04-25 01:19 0.01335 -78.37151 11209 ft 284 kts 318°
2026-04-25 01:19 0.02527 -78.38688 12027 ft 281 kts 294°
2026-04-25 01:20 0.02945 -78.40579 12727 ft 281 kts 268°
2026-04-25 01:20 0.02504 -78.42469 13412 ft 283 kts 243°
2026-04-25 01:20 0.01323 -78.44043 14080 ft 286 kts 227°
2026-04-25 01:20 -0.00027 -78.45515 14795 ft 288 kts 227°
2026-04-25 01:21 -0.01394 -78.47002 15347 ft 293 kts 227°
2026-04-25 01:21 -0.02782 -78.48518 15904 ft 297 kts 228°
2026-04-25 01:21 -0.04182 -78.50055 16462 ft 301 kts 228°
2026-04-25 01:21 -0.05590 -78.51608 16836 ft 302 kts 229°
2026-04-25 01:22 -0.07005 -78.53169 17119 ft 304 kts 229°
2026-04-25 01:22 -0.08431 -78.54742 17410 ft 306 kts 229°
2026-04-25 01:22 -0.09859 -78.56326 17697 ft 307 kts 229°
2026-04-25 01:22 -0.11268 -78.57937 17980 ft 309 kts 230°
2026-04-25 01:23 -0.12672 -78.59571 18264 ft 311 kts 230°
2026-04-25 01:23 -0.14078 -78.61218 18545 ft 312 kts 230°
2026-04-25 01:23 -0.15491 -78.62871 18790 ft 314 kts 230°
2026-04-25 01:23 -0.16912 -78.64532 19002 ft 315 kts 230°
2026-04-25 01:24 -0.18342 -78.66197 19192 ft 317 kts 230°
2026-04-25 01:24 -0.19783 -78.67869 19407 ft 318 kts 230°
2026-04-25 01:24 -0.21231 -78.69544 19602 ft 318 kts 230°
2026-04-25 01:24 -0.22677 -78.71214 19838 ft 319 kts 230°
2026-04-25 01:25 -0.24131 -78.72894 20052 ft 320 kts 230°
2026-04-25 01:25 -0.25590 -78.74582 20212 ft 322 kts 230°
2026-04-25 01:25 -0.27054 -78.76279 20260 ft 322 kts 230°
2026-04-25 01:25 -0.28518 -78.77974 20268 ft 322 kts 230°
2026-04-25 01:26 -0.29983 -78.79670 20312 ft 322 kts 230°
2026-04-25 01:26 -0.31445 -78.81361 20306 ft 322 kts 230°
2026-04-25 01:26 -0.32415 -78.82485 20307 ft 322 kts 230°
2026-04-25 01:26 -0.33878 -78.84181 20251 ft 322 kts 230°
2026-04-25 01:27 -0.35341 -78.85878 20265 ft 323 kts 230°
2026-04-25 01:27 -0.36805 -78.87578 20260 ft 322 kts 230°
2026-04-25 01:27 -0.38267 -78.89276 20257 ft 322 kts 230°
2026-04-25 01:28 -0.41201 -78.92678 20267 ft 333 kts 230°
2026-04-25 01:28 -0.42762 -78.94485 20256 ft 353 kts 230°
2026-04-25 01:28 -0.44411 -78.96395 20262 ft 372 kts 230°
2026-04-25 01:28 -0.46139 -78.98400 20297 ft 389 kts 230°
2026-04-25 01:29 -0.47943 -79.00492 20229 ft 405 kts 230°
2026-04-25 01:29 -0.49804 -79.02648 20231 ft 412 kts 229°
2026-04-25 01:29 -0.51682 -79.04822 20230 ft 414 kts 229°
2026-04-25 01:29 -0.53561 -79.06995 20236 ft 414 kts 230°
2026-04-25 01:30 -0.55444 -79.09173 20235 ft 414 kts 230°
2026-04-25 01:30 -0.57395 -79.11337 20227 ft 426 kts 224°
2026-04-25 01:30 -0.59755 -79.13194 20161 ft 437 kts 212°
2026-04-25 01:30 -0.62469 -79.14586 20187 ft 440 kts 205°
2026-04-25 01:31 -0.65252 -79.15872 20186 ft 441 kts 205°
2026-04-25 01:31 -0.68037 -79.17163 20186 ft 441 kts 205°
2026-04-25 01:31 -0.70821 -79.18457 20178 ft 441 kts 205°
2026-04-25 01:31 -0.73598 -79.19749 20182 ft 441 kts 205°
2026-04-25 01:32 -0.76382 -79.21042 20194 ft 441 kts 205°
2026-04-25 01:32 -0.79169 -79.22335 20201 ft 442 kts 205°
2026-04-25 01:32 -0.81955 -79.23631 20200 ft 442 kts 205°
2026-04-25 01:32 -0.84742 -79.24928 20191 ft 442 kts 205°
2026-04-25 01:33 -0.87530 -79.26222 20186 ft 442 kts 205°
2026-04-25 01:33 -0.90318 -79.27515 20190 ft 442 kts 205°
2026-04-25 01:33 -0.93105 -79.28809 20120 ft 442 kts 205°
2026-04-25 01:33 -0.95891 -79.30105 20115 ft 442 kts 205°
2026-04-25 01:34 -0.98660 -79.31394 19998 ft 433 kts 205°
2026-04-25 01:34 -1.01358 -79.32651 19765 ft 423 kts 205°
2026-04-25 01:34 -1.03996 -79.33879 19559 ft 413 kts 205°
2026-04-25 01:34 -1.06567 -79.35073 19464 ft 401 kts 205°
2026-04-25 01:35 -1.09060 -79.36231 19394 ft 389 kts 205°
2026-04-25 01:35 -1.11473 -79.37353 19326 ft 377 kts 205°
2026-04-25 01:35 -1.13806 -79.38441 19258 ft 365 kts 205°
2026-04-25 01:35 -1.16091 -79.39509 19190 ft 361 kts 205°
2026-04-25 01:36 -1.18359 -79.40568 19122 ft 359 kts 205°
2026-04-25 01:36 -1.20623 -79.41620 19043 ft 358 kts 205°
2026-04-25 01:36 -1.22883 -79.42667 18906 ft 358 kts 205°
2026-04-25 01:36 -1.25141 -79.43713 18550 ft 359 kts 205°
2026-04-25 01:37 -1.27382 -79.44755 18072 ft 361 kts 206°
2026-04-25 01:37 -1.29661 -79.45815 17621 ft 361 kts 206°
2026-04-25 01:37 -1.31937 -79.46876 17177 ft 361 kts 206°
2026-04-25 01:37 -1.34205 -79.47932 16729 ft 360 kts 205°
2026-04-25 01:38 -1.36475 -79.48989 16268 ft 360 kts 205°
2026-04-25 01:38 -1.38741 -79.50043 15831 ft 359 kts 205°
2026-04-25 01:38 -1.41004 -79.51094 15390 ft 358 kts 205°
2026-04-25 01:38 -1.43261 -79.52142 15015 ft 355 kts 205°
2026-04-25 01:39 -1.45503 -79.53184 14599 ft 354 kts 205°
2026-04-25 01:39 -1.47720 -79.54215 14272 ft 349 kts 205°
2026-04-25 01:39 -1.49917 -79.55237 13704 ft 348 kts 205°
2026-04-25 01:39 -1.52102 -79.56252 13180 ft 344 kts 205°
2026-04-25 01:40 -1.54247 -79.57247 12756 ft 337 kts 205°
2026-04-25 01:40 -1.56355 -79.58227 12292 ft 331 kts 205°
2026-04-25 01:40 -1.58427 -79.59192 11894 ft 326 kts 205°
2026-04-25 01:40 -1.60469 -79.60142 11496 ft 321 kts 205°
2026-04-25 01:41 -1.62484 -79.61081 11106 ft 319 kts 205°
2026-04-25 01:41 -1.64501 -79.62019 10705 ft 320 kts 205°
2026-04-25 01:41 -1.66527 -79.62959 10284 ft 322 kts 205°
2026-04-25 01:41 -1.68552 -79.63901 9998 ft 317 kts 205°
2026-04-25 01:42 -1.70511 -79.64811 9868 ft 304 kts 205°
2026-04-25 01:42 -1.72407 -79.65692 9447 ft 299 kts 205°
2026-04-25 01:42 -1.74280 -79.66563 9013 ft 297 kts 205°
2026-04-25 01:42 -1.76151 -79.67433 8605 ft 296 kts 205°
2026-04-25 01:43 -1.78013 -79.68296 8202 ft 294 kts 205°
2026-04-25 01:43 -1.79865 -79.69156 7802 ft 293 kts 205°
2026-04-25 01:43 -1.81708 -79.70015 7394 ft 292 kts 205°
2026-04-25 01:43 -1.83543 -79.70872 7001 ft 290 kts 205°
2026-04-25 01:44 -1.85363 -79.71721 6605 ft 287 kts 205°
2026-04-25 01:44 -1.87157 -79.72555 6191 ft 282 kts 205°
2026-04-25 01:44 -1.88920 -79.73374 5804 ft 277 kts 205°
2026-04-25 01:44 -1.90654 -79.74181 5427 ft 273 kts 205°
2026-04-25 01:45 -1.92364 -79.74977 5065 ft 269 kts 205°
2026-04-25 01:45 -1.94025 -79.75816 4699 ft 266 kts 208°
2026-04-25 01:45 -1.95621 -79.76709 4401 ft 259 kts 210°
2026-04-25 01:45 -1.97144 -79.77591 4084 ft 254 kts 210°
2026-04-25 01:46 -1.98654 -79.78476 3742 ft 249 kts 210°
2026-04-25 01:46 -2.00154 -79.79354 3409 ft 243 kts 209°
2026-04-25 01:46 -2.01574 -79.80182 3087 ft 237 kts 209°
2026-04-25 01:46 -2.02961 -79.80987 2773 ft 223 kts 209°
2026-04-25 01:47 -2.04255 -79.81735 2476 ft 207 kts 208°
2026-04-25 01:47 -2.05448 -79.82424 2237 ft 188 kts 210°
2026-04-25 01:47 -2.06528 -79.83048 1966 ft 171 kts 210°
2026-04-25 01:47 -2.07488 -79.83603 1750 ft 148 kts 211°
2026-04-25 01:48 -2.08323 -79.84085 1553 ft 132 kts 211°
2026-04-25 01:48 -2.09099 -79.84532 1376 ft 126 kts 211°
2026-04-25 01:48 -2.09850 -79.84965 1209 ft 123 kts 212°
2026-04-25 01:48 -2.10604 -79.85400 1037 ft 124 kts 212°
2026-04-25 01:49 -2.11353 -79.85832 887 ft 125 kts 212°
2026-04-25 01:49 -2.12099 -79.86263 675 ft 124 kts 211°
2026-04-25 01:49 -2.12844 -79.86693 539 ft 125 kts 210°
2026-04-25 01:49 -2.13590 -79.87121 352 ft 123 kts 209°
2026-04-25 01:50 -2.14326 -79.87549 196 ft 121 kts 209°
2026-04-25 01:50 -2.15056 -79.87971 48 ft 121 kts 210°
2026-04-25 01:50 -2.15661 -79.88317 27 ft 47 kts 210°
2026-04-25 01:50 -2.15689 -79.88371 26 ft 7 kts 313°
2026-04-25 01:51 -2.15651 -79.88409 27 ft 8 kts 341°
2026-04-25 01:51 -2.15626 -79.88403 28 ft 0 kts 14°
2026-04-25 01:52 -2.15606 -79.88396 28 ft 5 kts 26°
2026-04-25 01:52 -2.15564 -79.88369 28 ft 9 kts 28°
2026-04-25 01:52 -2.15493 -79.88331 28 ft 13 kts 28°
2026-04-25 01:53 -2.15419 -79.88289 28 ft 12 kts 29°
2026-04-25 01:53 -2.15346 -79.88247 28 ft 12 kts 31°
2026-04-25 01:53 -2.15278 -79.88222 28 ft 9 kts 342°
2026-04-25 01:53 -2.15242 -79.88259 28 ft 7 kts 298°
2026-04-25 01:54 -2.15222 -79.88296 29 ft 6 kts 300°
2026-04-25 01:54 -2.15204 -79.88327 29 ft 5 kts 300°
2026-04-25 01:54 -2.15189 -79.88354 29 ft 4 kts 300°
2026-04-25 01:54 -2.15176 -79.88376 29 ft 3 kts 300°
2026-04-25 01:55 -2.15159 -79.88391 29 ft 4 kts 330°
2026-04-25 01:55 -2.15131 -79.88393 29 ft 4 kts
2026-04-25 01:55 -2.15110 -79.88407 29 ft 4 kts 313°
2026-04-25 01:55 -2.15097 -79.88428 29 ft 4 kts 301°
2026-04-25 01:56 -2.15087 -79.88446 29 ft 0 kts 299°
2026-04-25 01:56 -2.15085 -79.88448 29 ft 1 kts 301°
2026-04-25 01:56 -2.15084 -79.88450 29 ft 0 kts 301°